TimeCEST,TemperatureF,Dew PointF,Humidity,Sea Level PressureIn,VisibilityMPH,Wind Direction,Wind SpeedMPH,Gust SpeedMPH,PrecipitationIn,Events,Conditions,WindDirDegrees,DateUTC
12:58 AM,41.9,40.8,96,30.40,6.2,Calm,Calm,-,N/A,,Clear,0,2013-09-21 22:58:00
1:58 AM,40.6,39.6,96,30.41,6.2,North,2.3,-,N/A,,Clear,350,2013-09-21 23:58:00
2:58 AM,39.7,38.7,96,30.42,6.2,North,3.5,-,N/A,,Clear,350,2013-09-22 00:58:00
3:58 AM,38.8,37.8,96,30.41,6.2,North,1.2,-,N/A,,Clear,350,2013-09-22 01:58:00
4:58 AM,38.7,37.6,96,30.41,6.2,NNW,1.2,-,N/A,,Clear,330,2013-09-22 02:58:00
5:58 AM,37.9,37.0,97,30.41,6.2,North,2.3,-,N/A,,Clear,350,2013-09-22 03:58:00
6:58 AM,37.0,36.0,96,30.43,6.2,NNW,2.3,-,N/A,,Scattered Clouds,340,2013-09-22 04:58:00
7:35 AM,37.4,37.4,100,30.39,6.2,Calm,Calm,-,N/A,,Mostly Cloudy,0,2013-09-22 05:35:00
7:41 AM,37.4,37.4,100,30.39,6.2,Calm,Calm,-,N/A,,Mostly Cloudy,0,2013-09-22 05:41:00
7:58 AM,38.1,37.0,96,30.43,6.2,Calm,Calm,-,N/A,,Overcast,0,2013-09-22 05:58:00
8:38 AM,41.0,39.2,93,30.39,6.2,Calm,Calm,-,N/A,,Mostly Cloudy,0,2013-09-22 06:38:00
8:58 AM,41.7,40.8,97,30.43,6.2,Calm,Calm,-,N/A,,Partly Cloudy,0,2013-09-22 06:58:00
9:58 AM,45.5,44.4,96,30.43,6.2,ESE,2.3,-,N/A,,Mostly Cloudy,110,2013-09-22 07:58:00
9:59 AM,46.4,44.6,93,30.39,6.2,ESE,2.3,-,N/A,,Mostly Cloudy,120,2013-09-22 07:59:00
10:04 AM,46.4,44.6,93,30.39,6.2,ESE,2.3,-,N/A,,Overcast,120,2013-09-22 08:04:00
10:58 AM,51.1,49.3,94,30.43,6.2,Variable,1.2,-,N/A,,Mostly Cloudy,0,2013-09-22 08:58:00
11:50 AM,57.2,50.0,77,30.38,6.2,SSE,2.3,-,N/A,,Overcast,150,2013-09-22 09:50:00
11:56 AM,59.0,50.0,72,30.39,6.2,Variable,2.3,-,N/A,,Overcast,0,2013-09-22 09:56:00
11:58 AM,59.0,50.0,72,30.41,6.2,Variable,1.2,-,N/A,,Overcast,0,2013-09-22 09:58:00
12:00 PM,59.0,48.2,67,30.39,6.2,SSE,3.5,-,N/A,,Overcast,150,2013-09-22 10:00:00
12:01 PM,59.0,48.2,67,30.39,6.2,SSE,3.5,-,N/A,,Overcast,150,2013-09-22 10:01:00
12:44 PM,59.0,48.2,67,30.38,6.2,West,5.8,-,N/A,,Scattered Clouds,270,2013-09-22 10:44:00
12:58 PM,59.5,47.8,65,30.39,6.2,SW,4.6,-,N/A,,Partly Cloudy,230,2013-09-22 10:58:00
1:58 PM,61.9,48.7,62,30.38,6.2,West,8.1,-,N/A,,Scattered Clouds,260,2013-09-22 11:58:00
2:58 PM,61.5,48.0,61,30.37,6.2,West,8.1,-,N/A,,Mostly Cloudy,280,2013-09-22 12:58:00
3:58 PM,62.2,48.7,61,30.36,6.2,Variable,4.6,-,N/A,,Partly Cloudy,0,2013-09-22 13:58:00
4:58 PM,62.6,48.6,60,30.35,6.2,Variable,4.6,-,N/A,,Clear,0,2013-09-22 14:58:00
5:58 PM,61.0,49.3,65,30.35,6.2,NW,4.6,-,N/A,,Scattered Clouds,310,2013-09-22 15:58:00
6:58 PM,59.0,49.8,72,30.36,6.2,NW,2.3,-,N/A,,Scattered Clouds,310,2013-09-22 16:58:00
7:58 PM,55.6,51.3,85,30.36,6.2,West,2.3,-,N/A,,Overcast,270,2013-09-22 17:58:00
8:30 PM,55.4,51.8,88,30.33,6.2,West,4.6,-,N/A,,Overcast,270,2013-09-22 18:30:00
8:58 PM,55.4,51.6,87,30.36,6.2,Calm,Calm,-,N/A,,Overcast,0,2013-09-22 18:58:00
9:58 PM,57.2,50.5,78,30.36,6.2,West,2.3,-,N/A,,Overcast,270,2013-09-22 19:58:00
10:32 PM,55.4,50.0,82,30.34,6.2,WNW,3.5,-,N/A,,Overcast,290,2013-09-22 20:32:00
10:58 PM,54.3,50.5,87,30.34,6.2,West,2.3,-,N/A,,Overcast,270,2013-09-22 20:58:00
11:18 PM,53.6,50.0,88,30.33,6.2,West,2.3,-,N/A,,Overcast,270,2013-09-22 21:18:00
11:58 PM,53.2,50.7,91,30.33,6.2,West,3.5,-,N/A,,Overcast,270,2013-09-22 21:58:00